TimeMDT,TemperatureF,Dew PointF,Humidity,Sea Level PressureIn,VisibilityMPH,Wind Direction,Wind SpeedMPH,Gust SpeedMPH,PrecipitationIn,Events,Conditions,WindDirDegrees,DateUTC
12:54 AM,37.9,30.0,73,30.11,10.0,SSW,3.5,-,N/A,,Clear,210,2013-03-14 06:54:00
1:54 AM,41.0,28.9,62,30.09,10.0,Calm,Calm,-,N/A,,Clear,0,2013-03-14 07:54:00
2:54 AM,41.0,28.9,62,30.09,10.0,WSW,8.1,-,N/A,,Clear,240,2013-03-14 08:54:00
3:54 AM,39.0,30.0,70,30.10,10.0,SW,12.7,-,N/A,,Clear,220,2013-03-14 09:54:00
4:54 AM,39.9,30.0,68,30.10,10.0,Calm,Calm,-,N/A,,Clear,0,2013-03-14 10:54:00
5:54 AM,39.0,30.0,70,30.11,10.0,SW,11.5,-,N/A,,Clear,220,2013-03-14 11:54:00
6:54 AM,37.9,30.0,73,30.14,10.0,SSW,10.4,-,N/A,,Clear,210,2013-03-14 12:54:00
7:54 AM,43.0,28.9,58,30.13,10.0,West,6.9,-,N/A,,Clear,260,2013-03-14 13:54:00
8:54 AM,45.0,30.0,56,30.12,10.0,WSW,8.1,-,N/A,,Clear,240,2013-03-14 14:54:00
9:54 AM,48.0,34.0,58,30.09,10.0,SW,10.4,-,N/A,,Clear,220,2013-03-14 15:54:00
10:54 AM,52.0,33.1,49,30.09,10.0,WSW,15.0,24.2,N/A,,Partly Cloudy,250,2013-03-14 16:54:00
11:54 AM,52.0,35.1,53,30.08,10.0,WSW,15.0,-,N/A,,Clear,250,2013-03-14 17:54:00
12:54 PM,55.0,32.0,42,30.07,10.0,West,12.7,-,N/A,,Clear,270,2013-03-14 18:54:00
1:54 PM,54.0,37.9,55,30.07,10.0,West,6.9,-,N/A,,Overcast,270,2013-03-14 19:54:00
2:54 PM,55.9,35.1,45,30.05,10.0,West,8.1,-,N/A,,Overcast,270,2013-03-14 20:54:00
3:54 PM,52.0,39.9,63,30.05,10.0,SW,3.5,-,N/A,,Overcast,220,2013-03-14 21:54:00
4:54 PM,50.0,37.9,63,30.05,10.0,SSW,3.5,-,N/A,,Overcast,210,2013-03-14 22:54:00
5:54 PM,51.1,35.1,54,30.04,10.0,South,3.5,-,N/A,,Overcast,180,2013-03-14 23:54:00
6:54 PM,48.0,33.1,56,30.01,10.0,SSW,10.4,-,N/A,,Clear,200,2013-03-15 00:54:00
7:54 PM,46.9,30.9,54,29.98,10.0,ESE,4.6,-,N/A,,Clear,110,2013-03-15 01:54:00
8:54 PM,45.0,30.9,58,29.94,10.0,SE,6.9,-,N/A,,Mostly Cloudy,130,2013-03-15 02:54:00
9:54 PM,42.1,30.9,65,29.93,10.0,ESE,8.1,-,N/A,,Clear,120,2013-03-15 03:54:00
10:54 PM,44.1,30.0,58,29.88,10.0,SSE,5.8,-,N/A,,Clear,150,2013-03-15 04:54:00
11:54 PM,46.9,30.9,54,29.86,10.0,SW,16.1,-,N/A,,Clear,220,2013-03-15 05:54:00